Wind_Speed
20 21 18 18 18 19 19 19 19 19 19 19 18 18 17 17 16 15 18 19 16 14 14 12 12 11 11 10 10 10 9 8 7 7 6 7 7 6 6 5 5 6
21 22 20 19 18 19 20 19 19 19 19 19 18 17 18 17 17 16 17 20 19 15 15 14 13 12 12 10 9 9 9 9 9 8 7 6 6 6 7 6 6 8
22 22 22 21 19 18 19 18 18 18 18 18 18 17 17 17 17 15 14 17 18 16 15 15 14 14 13 11 10 9 9 9 9 8 7 7 7 6 7 7 6 7
24 23 23 22 21 19 19 18 18 18 17 18 18 17 17 17 18 17 14 14 16 15 14 15 15 14 13 12 12 11 10 9 8 8 8 8 8 8 8 7 7 8
24 24 23 23 22 21 20 19 18 18 17 17 17 15 15 15 16 18 19 16 15 15 15 14 15 15 13 12 12 12 12 11 10 9 10 10 10 10 9 8 8 9
25 24 24 23 22 21 21 20 19 18 17 17 16 15 15 15 14 15 19 19 18 17 15 14 15 15 13 13 12 12 13 12 11 11 12 13 12 10 9 9 10 9
25 24 24 23 22 22 22 21 20 19 18 18 17 16 16 17 16 14 15 17 19 18 17 15 16 16 15 15 15 15 15 13 12 12 13 13 13 11 10 10 9 8
25 25 24 23 23 22 22 21 21 20 19 19 19 18 17 17 18 17 16 16 17 18 16 15 16 18 18 17 17 17 17 15 13 12 12 12 13 12 10 10 10 10
24 25 24 24 22 21 21 21 21 20 19 20 20 19 18 18 18 18 18 17 16 16 15 15 16 17 19 20 18 17 16 16 14 12 11 12 13 14 13 12 11 11
24 24 25 24 23 22 21 21 21 21 20 19 19 18 17 17 17 18 18 17 17 17 16 15 13 11 12 14 16 16 15 16 15 13 12 12 12 13 13 13 13 12
25 25 25 25 25 23 22 22 21 21 21 20 20 18 16 16 16 16 17 16 17 16 15 15 13 10 9 10 11 13 14 15 14 13 13 12 11 12 12 11 11 11
25 25 26 25 25 25 23 22 19 17 17 19 21 21 18 16 15 14 15 16 15 14 14 15 16 15 15 14 13 12 13 13 12 12 12 12 11 12 11 10 9 8
24 21 21 22 23 23 22 19 14 10 9 11 15 18 18 16 15 14 14 15 15 14 13 14 15 16 16 15 14 14 14 13 13 13 12 12 12 11 11 12 12 9
2 2 5 8 10 13 16 16 13 9 7 6 6 9 11 12 12 13 13 14 14 13 12 13 15 16 16 14 12 12 13 13 14 14 12 11 12 11 11 10 7 7
8 4 2 5 6 7 10 12 11 9 8 7 5 5 7 8 9 10 11 13 13 12 12 13 15 14 14 14 12 10 11 13 14 13 10 10 9 9 8 6 5 7
4 7 8 11 12 9 6 7 8 8 8 8 7 6 6 7 8 8 10 11 11 11 13 14 13 11 10 12 13 12 13 14 14 11 9 7 6 4 4 4 5 8
7 10 11 13 14 11 7 5 7 8 9 10 10 8 7 7 7 8 9 10 11 12 12 12 12 10 9 11 11 11 12 13 12 10 8 7 5 4 5 4 3 5
5 7 10 13 14 12 9 6 7 9 10 12 13 12 10 8 8 8 10 11 11 10 9 10 11 11 12 12 12 10 11 11 11 11 9 8 7 6 6 6 5 7
6 5 7 11 13 11 8 7 9 10 10 12 12 12 11 10 9 10 11 12 12 11 11 10 10 10 10 11 11 11 11 11 13 13 12 11 10 9 8 7 7 9
4 6 8 10 10 10 8 8 9 9 7 8 9 10 10 9 9 11 13 13 13 13 13 12 11 10 10 10 10 9 9 11 12 13 12 12 11 10 9 8 8 9
2 5 7 6 6 7 8 9 9 8 6 5 7 8 8 8 9 11 14 15 14 14 14 13 12 11 10 9 8 7 7 9 10 11 11 10 10 9 9 9 9 8
2 3 5 5 4 5 7 8 8 8 9 9 7 8 8 9 9 11 14 15 15 15 15 13 11 10 8 8 7 5 4 5 8 10 10 9 8 8 8 8 9 8
3 2 3 4 4 3 3 5 5 7 9 11 12 11 11 10 9 11 14 15 16 16 15 14 12 9 7 7 6 5 5 6 7 9 9 8 8 7 6 6 6 6
6 5 4 3 2 2 3 4 5 7 9 12 14 14 13 11 10 13 15 16 18 17 14 13 11 8 7 7 7 8 8 8 7 7 7 7 6 5 5 5 5 4
9 10 9 8 7 6 5 4 4 6 8 11 12 14 16 15 13 16 18 19 19 17 13 11 10 9 7 7 8 9 10 10 8 6 5 4 4 4 6 6 7 7
14 14 12 11 10 7 5 4 3 4 5 5 6 6 11 13 16 22 23 21 19 17 14 11 9 9 7 6 8 8 8 9 9 8 7 4 2 4 6 5 5 4
Wind_Direction
185 187 186 188 193 195 195 194 193 196 197 198 200 202 204 206 209 209 205 207 209 204 208 214 208 210 217 212 207 209 202 195 205 216 221 220 219 222 230 249 258 243
188 191 192 193 196 198 198 199 198 201 204 203 203 206 205 203 209 216 211 207 206 205 208 213 214 217 222 219 214 218 217 210 212 220 228 228 227 237 244 246 252 249
191 192 196 197 198 199 199 202 202 204 208 208 209 213 207 200 207 215 213 207 204 203 207 212 216 220 221 218 217 223 225 220 220 221 226 235 237 249 259 249 252 256
195 195 197 198 199 202 203 205 207 209 212 213 214 217 213 205 206 209 208 206 203 202 206 212 218 223 223 218 215 224 227 224 226 224 228 242 244 248 254 242 242 253
199 199 199 200 201 203 206 207 209 214 217 218 216 218 219 214 211 209 206 204 205 207 209 216 223 224 224 221 217 222 228 229 232 231 232 240 243 247 250 245 250 256
201 203 203 203 204 205 208 207 209 215 218 218 218 218 219 220 223 217 209 207 209 211 214 221 227 223 218 223 225 225 229 232 234 236 240 243 243 245 248 252 264 270
202 204 206 206 207 209 210 209 209 213 217 218 219 220 218 221 227 225 218 215 212 212 216 220 225 223 218 222 226 226 228 232 234 240 247 249 244 242 245 250 261 274
204 205 208 209 211 214 213 214 214 213 216 218 217 218 218 218 224 224 221 221 217 215 216 216 221 225 224 224 225 225 227 229 232 240 248 248 241 241 246 247 252 261
204 204 208 210 213 217 217 218 221 219 217 219 220 221 220 219 223 222 216 217 220 221 222 222 224 229 229 225 223 224 227 230 230 232 243 248 243 245 250 251 255 258
206 205 206 209 212 218 220 219 221 222 219 219 222 223 224 223 222 219 214 213 220 225 228 229 229 238 242 233 228 228 227 229 229 227 236 246 248 250 252 254 257 254
208 205 203 206 209 214 221 222 222 224 222 220 220 220 224 226 222 220 220 218 221 226 229 230 231 237 247 244 247 253 245 236 234 234 239 245 249 252 252 256 260 256
208 208 204 205 208 211 215 219 221 223 221 220 220 218 217 219 217 217 219 217 219 223 225 231 232 229 229 228 231 247 256 255 251 245 242 244 243 243 247 253 255 255
205 207 208 207 208 209 211 214 218 222 221 213 211 211 210 210 209 208 207 208 212 217 225 233 233 231 238 240 229 226 238 251 254 248 243 243 240 237 246 254 256 269
218 167 203 205 200 203 209 217 225 232 238 223 198 202 207 207 210 208 206 208 211 218 229 238 238 236 241 244 237 230 233 239 246 251 251 247 245 247 257 264 281 319
4 12 249 219 208 200 203 218 231 235 241 244 226 215 217 217 224 223 218 215 215 222 233 236 237 240 237 234 236 238 234 230 235 245 250 250 253 262 268 272 287 297
216 216 220 219 219 221 209 219 239 239 239 244 236 225 225 229 236 232 224 222 220 226 232 229 230 237 236 232 233 232 226 225 233 240 242 247 257 263 261 263 267 268
202 213 222 227 228 231 227 229 249 248 245 248 249 249 244 235 230 219 212 218 222 225 225 222 224 227 224 221 225 229 228 227 228 227 224 227 228 230 240 243 230 238
211 222 231 236 237 234 228 235 252 254 251 251 253 256 252 237 226 213 204 207 210 208 203 200 207 214 216 218 223 230 233 227 218 212 210 211 210 220 238 240 237 253
213 230 240 240 240 238 233 241 252 255 257 257 254 254 252 240 222 206 201 202 197 188 181 179 185 195 204 212 219 225 229 226 221 217 214 213 216 223 231 240 258 272
239 245 249 244 239 239 239 243 247 249 258 267 262 255 250 236 215 201 198 199 193 186 189 192 195 200 205 210 216 224 230 230 227 223 219 219 222 225 233 251 271 278
245 248 256 255 241 242 251 253 250 246 249 263 270 265 253 234 214 203 200 198 191 190 194 196 198 203 210 214 215 223 236 238 231 223 218 219 224 232 246 263 275 277
163 216 232 240 243 256 267 266 262 260 252 245 252 264 258 241 221 206 201 194 188 190 193 190 190 199 209 214 214 215 222 219 213 212 210 212 221 232 244 256 265 271
116 178 211 226 235 251 280 283 283 281 268 253 248 249 248 245 228 205 193 183 180 187 189 181 179 187 198 202 197 187 174 177 197 210 211 210 216 222 228 237 250 264
89 84 78 79 85 66 27 347 313 295 280 266 257 247 239 241 225 196 179 169 171 177 177 170 162 159 168 176 167 163 165 168 186 209 211 210 207 195 188 188 188 209
78 80 80 71 59 46 24 358 320 293 278 274 273 260 244 234 207 173 156 151 157 162 161 159 149 136 136 141 138 147 164 168 171 176 177 192 200 171 159 166 176 193
82 84 84 77 68 59 46 30 7 330 307 305 303 263 227 200 164 145 137 137 143 147 147 148 144 134 129 129 129 138 154 164 168 165 156 156 181 175 162 166 190 211
Height
822 824 825 826 828 828 829 830 831 831 832 832 833 834 834 835 835 836 837 837 838 839 839 840 840 840 841 841 842 842 842 842 843 843 843 843 844 844 844 844 844 843
820 822 824 825 826 827 828 829 830 830 831 831 832 832 833 834 834 835 835 836 837 837 838 839 839 839 840 840 841 841 842 842 842 842 843 843 843 843 843 843 843 843
819 820 822 823 824 826 827 828 829 829 830 830 831 831 832 832 833 834 834 834 835 836 837 837 838 839 839 840 840 840 841 841 841 842 842 842 842 842 842 842 842 842
817 819 820 821 823 824 826 827 828 828 829 830 830 830 831 831 832 832 833 834 834 835 835 836 837 837 838 839 839 840 840 840 840 841 841 841 841 841 841 842 841 841
816 817 819 820 821 823 824 825 826 827 828 828 829 829 830 830 831 831 832 833 833 834 834 835 835 836 837 837 838 839 839 839 839 840 840 839 840 840 840 840 840 840
815 816 817 819 820 821 823 823 825 825 826 827 828 828 829 829 830 830 830 831 832 833 833 834 834 835 836 836 837 837 837 838 838 838 838 838 838 839 839 839 839 839
813 815 816 818 819 820 821 822 823 824 825 826 826 827 828 828 829 829 829 830 830 831 832 833 833 834 834 835 835 836 836 837 837 837 837 837 837 838 838 838 838 838
811 813 815 817 818 819 820 820 821 822 823 824 824 825 825 826 827 827 828 829 829 829 830 831 832 832 833 833 834 834 835 835 836 836 836 836 836 836 836 837 837 837
810 811 813 815 816 817 818 819 820 820 821 822 822 823 823 824 824 825 826 827 828 829 829 830 831 831 832 832 832 833 833 834 834 834 834 835 835 835 835 835 836 836
808 809 811 813 814 816 816 817 818 819 819 820 820 821 821 822 822 823 824 825 826 827 828 829 830 830 831 832 832 832 831 832 832 832 833 833 833 833 833 834 834 834
805 806 808 810 812 813 814 815 816 817 817 817 818 819 819 820 821 822 822 823 824 826 826 827 828 829 829 831 833 833 831 831 830 831 831 831 832 832 832 832 832 832
802 804 806 807 809 810 812 813 814 814 815 815 815 816 817 818 819 820 821 821 823 824 824 824 826 827 826 826 828 830 831 831 831 830 830 830 830 830 830 831 831 831
800 802 803 805 806 808 809 811 812 813 813 813 813 814 815 816 816 817 818 819 821 821 822 823 824 825 825 824 825 827 828 830 830 829 828 828 829 829 829 829 829 829
801 800 802 804 805 805 807 808 810 812 812 811 812 813 814 814 815 816 817 818 819 819 820 821 822 823 823 824 825 826 826 827 828 828 827 827 828 828 828 828 828 829
805 804 804 805 805 805 806 807 808 810 810 810 811 812 813 813 814 814 815 816 817 817 818 819 820 821 822 823 824 824 825 825 825 825 826 826 826 827 827 827 827 828
805 805 805 805 805 805 806 806 808 809 809 809 810 811 812 812 812 813 813 814 814 815 816 816 817 819 820 822 822 822 823 823 823 823 824 824 825 825 826 826 826 826
801 802 802 804 804 806 806 805 807 807 808 809 809 809 810 810 811 811 811 812 812 813 814 814 815 817 818 819 820 821 821 821 821 821 821 822 823 823 824 824 825 825
798 799 801 802 803 804 804 804 805 805 806 807 807 808 809 808 809 809 809 810 811 811 812 813 813 814 815 817 818 819 820 819 819 819 819 820 820 820 821 822 823 824
796 798 799 801 802 803 803 803 804 804 805 805 806 806 807 807 807 807 807 808 809 810 811 811 812 813 813 814 815 816 817 818 818 818 817 818 818 818 819 820 821 821
797 798 799 800 801 802 803 803 804 804 804 805 805 806 806 806 806 806 806 807 807 808 809 809 810 811 811 812 813 814 815 815 816 816 816 816 817 817 817 817 818 819
797 797 798 799 800 801 802 803 803 803 803 803 804 805 805 805 805 805 804 805 806 806 807 807 808 808 809 810 810 812 813 813 814 815 815 815 815 815 816 816 816 816
797 797 798 798 799 800 800 801 801 801 801 801 801 802 803 803 803 803 803 803 804 804 805 805 806 807 807 808 808 809 811 812 813 813 813 813 813 813 814 814 814 814
795 796 796 797 797 797 798 798 798 799 799 799 799 800 800 801 801 801 801 802 802 802 802 803 805 805 806 806 806 807 809 810 812 812 812 812 812 812 812 812 813 813
794 794 795 795 795 794 795 796 797 797 797 797 797 797 798 799 799 799 799 799 800 801 801 802 803 804 805 805 805 806 808 809 811 812 812 812 811 811 811 811 811 811
794 794 794 793 793 792 794 795 796 796 795 794 794 795 796 797 796 795 795 796 798 800 801 802 802 802 804 804 804 804 806 808 810 811 811 811 811 811 811 811 810 810
794 794 794 794 793 794 795 797 796 795 794 793 792 792 793 794 793 791 791 794 796 798 800 802 802 802 804 804 803 804 806 807 809 810 810 811 811 811 811 811 810 810